RH
25 25 23 19 18 17 18 19 20 20 19 35 57 63 67 69 74 80 79 78 76 75 70 75 87 89 88 87 84 81 80 91 68 58 51 49 49 47 46 46 45 44 45 47
28 26 20 28 26 29 25 26 25 24 28 38 52 59 64 68 73 77 78 76 74 72 72 72 67 60 61 65 68 65 60 53 48 43 42 40 42 45 44 46 47 49 51 52
27 21 24 29 34 34 36 30 29 27 29 34 38 48 60 57 66 68 69 68 66 70 76 80 70 60 48 43 41 40 39 37 35 34 37 39 42 46 48 51 52 53 54 53
28 29 28 29 29 33 33 29 27 29 28 37 30 45 48 58 66 67 70 72 70 68 72 72 64 53 42 41 39 38 38 38 40 42 42 43 44 48 54 57 56 55 53 49
28 29 30 31 28 26 30 32 33 33 42 37 38 51 55 64 71 71 70 72 71 72 74 69 59 51 50 46 44 43 43 44 46 47 46 46 48 53 59 57 56 53 48 44
31 27 27 27 29 27 29 41 50 55 53 62 46 46 54 68 64 66 63 68 68 67 61 60 56 52 53 51 48 50 51 51 50 49 50 52 53 57 58 56 50 44 38 38
37 34 31 28 31 30 41 50 70 71 75 70 50 55 53 46 53 59 65 67 66 64 65 67 64 61 56 52 54 53 52 53 53 53 53 55 56 55 50 45 42 39 39 41
48 46 32 28 30 35 42 44 73 58 79 68 52 64 57 55 48 55 58 62 63 62 65 64 61 60 62 60 56 53 53 53 53 52 52 50 46 44 43 42 42 43 45 48
45 39 30 27 30 30 39 47 42 75 73 76 66 57 54 59 61 60 60 59 62 59 58 63 63 60 58 52 48 50 52 53 54 50 45 44 44 43 42 44 45 45 46 49
42 45 32 27 28 32 29 41 56 71 57 56 61 64 73 64 65 61 60 62 62 65 69 69 63 59 56 49 47 46 48 52 49 45 45 43 41 43 45 46 45 49 51 54
39 41 39 34 34 38 40 45 56 60 73 73 79 67 54 60 59 61 61 64 66 71 68 64 57 50 46 42 39 43 49 46 44 45 44 43 44 46 47 49 54 60 65 62
42 51 56 36 32 37 33 40 45 58 43 84 81 64 46 60 59 61 62 65 70 69 67 62 55 50 46 43 40 46 47 46 51 48 45 46 44 44 49 45 42 37 38 40
42 51 64 48 39 37 34 48 58 60 71 67 74 55 56 62 64 60 70 73 72 70 66 62 56 53 51 47 41 43 42 47 39 34 32 33 41 43 38 39 42 46 50 51
51 57 50 56 37 44 34 42 52 52 77 67 69 44 52 61 68 73 75 75 74 70 64 62 60 57 51 52 44 39 35 33 31 30 32 38 41 42 41 44 49 49 54 72
48 54 52 51 54 42 33 35 54 52 50 50 44 57 45 65 72 75 76 78 74 69 63 61 60 56 50 44 39 34 31 30 28 30 38 43 48 45 47 50 52 54 53 73
63 70 47 51 64 63 49 42 44 52 46 58 53 58 60 68 77 80 80 78 74 67 62 60 54 50 42 36 32 30 28 29 30 33 46 53 50 50 53 60 62 69 76 74
65 73 65 62 71 53 50 48 49 48 53 51 64 48 77 77 80 83 85 80 72 68 64 61 48 41 36 32 29 29 29 32 34 41 50 49 54 57 61 68 69 91 88 86
72 74 76 60 64 38 29 41 45 49 47 55 56 63 71 71 76 77 79 79 70 69 65 54 42 36 34 30 30 31 33 35 37 44 48 55 59 63 67 70 79 84 84 93
68 79 92 66 69 41 26 51 59 54 48 67 63 71 74 84 76 75 80 68 65 67 60 37 32 33 31 32 34 35 36 37 42 53 57 60 64 66 67 69 88 99 99 99
71 70 72 93 56 45 36 45 46 42 70 59 68 77 85 82 90 76 79 74 66 57 33 30 31 32 34 36 39 40 41 47 54 59 63 65 68 70 68 80 100 99 94 100
98 98 82 100 76 65 46 45 44 61 54 74 74 78 89 84 77 67 82 72 46 31 32 32 34 36 40 42 43 45 51 57 63 66 67 71 73 74 74 91 98 95 100 98
91 97 98 95 90 70 50 49 58 58 60 72 79 78 77 75 75 79 60 42 37 38 36 36 39 42 46 48 52 56 62 68 70 70 71 76 73 77 75 93 93 90 86 80
71 67 78 74 75 53 51 55 54 63 65 79 80 81 80 78 78 58 50 48 42 36 39 43 46 48 51 54 62 69 73 76 78 78 71 71 74 80 78 84 81 92 94 85
69 63 76 66 46 63 61 56 72 75 71 75 78 79 77 75 63 51 44 45 42 43 46 48 50 57 57 67 74 74 72 73 85 87 82 88 89 90 76 87 75 86 88 81
69 69 68 76 68 68 71 80 69 77 76 78 78 78 76 64 49 43 46 45 46 49 49 51 61 63 66 75 74 76 81 86 94 88 78 87 100 97 78 81 82 94 92 86
75 69 80 75 54 56 56 59 78 82 84 81 66 58 49 47 53 47 48 48 52 52 52 59 63 68 72 73 73 73 75 82 86 98 95 92 98 97 83 82 78 79 88 84
Wind_Speed
5 7 3 3 3 3 3 4 2 1 3 7 5 5 8 7 8 7 7 7 7 8 8 15 19 23 25 24 21 14 7 15 23 19 17 15 16 13 10 8 6 5 5 6
6 4 3 4 5 6 5 6 3 2 6 7 5 8 7 7 4 4 7 6 7 7 6 13 20 23 25 23 23 22 21 20 18 17 13 8 8 7 6 4 3 4 5 8
6 0 3 4 5 9 4 5 2 3 3 6 4 5 5 5 6 6 5 5 5 8 9 6 14 19 22 24 24 23 20 16 11 8 7 6 5 3 3 2 1 4 6 10
5 3 4 6 6 3 3 0 3 4 3 3 3 3 2 3 3 2 4 5 6 6 4 6 11 15 19 17 16 15 14 12 10 8 5 4 4 4 4 3 2 4 8 13
1 2 5 7 1 3 1 5 5 4 5 4 3 4 4 6 5 8 5 5 6 5 6 7 11 13 10 11 12 11 10 8 5 3 3 4 4 2 4 3 2 6 11 13
3 2 3 2 3 3 4 5 8 5 3 2 1 4 4 6 6 5 4 5 6 6 3 4 12 13 7 6 9 9 8 6 5 4 3 4 3 3 3 1 5 10 13 14
6 4 5 3 3 3 6 5 3 3 3 4 3 2 6 4 5 9 9 8 7 7 6 5 8 12 14 14 8 8 5 5 3 2 2 2 3 2 3 6 10 14 14 16
4 4 3 5 2 4 3 5 4 4 3 3 3 4 4 4 7 9 8 7 6 5 4 2 4 7 7 9 9 6 6 4 3 2 2 1 3 5 8 11 11 14 16 17
4 0 2 2 2 3 2 3 4 6 1 2 2 4 4 6 5 6 8 7 8 5 4 5 7 9 9 9 6 5 4 3 4 3 3 5 7 9 12 13 14 19 20 22
5 4 2 2 2 5 2 5 3 3 2 3 3 4 4 5 7 7 9 8 6 6 7 7 11 10 9 8 4 2 1 5 5 6 6 7 12 14 14 14 17 20 19 21
3 4 4 1 3 3 2 2 6 4 3 4 1 5 5 11 11 13 8 7 8 7 7 5 8 8 7 6 4 1 4 3 4 7 9 12 16 16 14 16 20 22 23 24
1 5 2 2 2 2 2 3 4 4 3 1 3 6 2 7 8 8 7 7 6 6 6 5 6 6 6 4 3 4 1 6 6 8 13 12 10 11 11 13 13 16 20 21
5 2 3 6 5 4 2 3 4 5 3 5 5 5 3 4 6 4 8 7 7 6 5 3 5 5 4 4 4 3 3 4 6 7 9 10 8 9 11 14 17 18 20 23
6 3 5 7 4 3 4 4 4 5 3 4 6 4 3 3 5 6 7 7 7 6 5 2 2 4 6 4 4 6 8 7 7 8 8 6 8 10 14 16 18 21 23 25
3 4 2 2 3 2 2 4 6 7 5 6 4 7 6 9 8 7 7 7 6 5 4 3 2 3 5 5 7 6 5 6 9 10 7 7 8 12 16 19 22 24 24 22
3 2 1 2 3 5 3 6 7 5 3 7 4 8 6 4 7 7 8 8 6 5 5 4 2 5 8 7 4 3 6 8 10 10 8 7 10 14 17 20 23 22 20 18
3 5 3 4 4 5 6 9 9 5 5 7 6 8 6 4 8 10 9 8 7 6 5 4 7 9 6 3 1 5 9 10 12 8 6 10 12 16 19 19 20 18 18 13
5 4 3 2 3 2 6 2 5 8 5 7 2 4 10 6 3 6 5 7 7 7 6 7 9 6 5 2 5 8 10 11 8 6 9 11 15 18 19 19 18 17 14 10
3 5 3 3 3 6 5 5 6 7 7 8 7 4 5 5 4 3 7 6 7 6 7 10 7 6 3 5 6 6 7 7 7 8 9 14 15 18 19 20 17 14 8 6
5 6 4 3 4 6 6 3 3 3 5 5 7 8 8 6 3 6 9 6 6 6 10 7 6 3 3 3 4 8 8 7 8 10 14 16 15 17 20 19 13 11 13 9
3 3 4 2 3 8 7 3 2 5 7 5 8 7 9 6 5 3 8 6 11 15 11 9 5 1 1 5 8 7 6 8 10 14 18 16 14 17 17 16 9 9 8 3
7 6 4 3 2 7 6 3 7 6 2 5 7 8 13 4 7 6 7 7 10 12 11 6 2 1 3 7 6 6 7 10 15 16 15 14 16 18 15 11 12 6 1 3
2 6 5 8 6 5 6 4 3 3 4 5 7 5 8 7 6 7 7 8 12 10 7 4 0 3 5 7 7 8 11 15 17 14 12 14 16 15 13 10 7 6 6 6
4 4 2 2 4 7 8 5 5 5 5 4 4 6 8 9 8 7 8 8 10 8 4 0 3 4 8 7 7 11 16 17 14 12 16 19 15 12 11 9 9 9 6 7
4 4 4 5 8 4 9 8 6 5 4 5 5 4 6 8 7 9 6 6 6 5 1 3 4 7 9 9 14 15 15 14 11 12 17 18 15 11 9 7 7 8 6 9
5 6 4 6 6 3 6 4 4 7 6 7 7 7 9 14 9 8 7 7 6 2 3 5 7 8 10 14 15 15 13 13 14 16 17 17 14 12 12 10 8 9 9 9
Wind_Direction
1 72 119 219 190 180 147 135 131 264 354 81 62 40 8 20 69 93 90 94 91 72 56 87 98 106 109 113 124 135 133 146 138 134 124 109 96 92 94 89 78 53 38 20
35 87 220 119 100 102 79 98 68 48 6 89 90 50 34 33 52 89 113 101 103 98 64 78 98 104 108 112 118 123 130 142 143 131 118 105 106 105 89 81 64 52 27 13
120 135 110 92 56 73 43 107 126 154 85 65 108 35 35 22 61 85 65 113 113 136 131 125 111 113 116 118 121 125 125 122 116 111 125 129 139 140 169 176 84 36 17 4
79 348 105 66 71 94 107 141 110 84 88 163 37 242 93 84 54 75 142 141 140 149 118 119 127 127 126 122 126 130 137 143 148 162 176 189 221 217 226 205 98 21 354 345
265 61 76 67 90 75 135 59 59 85 81 81 11 83 275 134 194 207 199 174 192 176 179 157 155 134 134 141 147 158 160 162 179 217 256 268 249 228 158 136 13 337 331 331
59 33 59 97 60 55 118 57 38 43 66 42 269 145 234 196 193 160 184 205 194 188 197 194 147 134 146 155 168 184 188 181 198 234 249 257 242 171 152 267 310 324 323 324
13 355 335 47 87 55 72 64 5 5 8 219 317 119 249 237 180 170 181 193 199 190 189 200 136 152 163 162 186 173 166 160 170 178 169 175 161 183 286 305 314 322 317 321
127 341 11 343 82 163 69 138 152 216 197 247 349 245 250 272 201 160 171 188 173 185 205 190 170 172 192 166 163 174 182 184 188 184 167 182 302 293 292 299 305 314 315 318
133 315 328 70 63 111 183 55 156 107 345 55 255 292 324 44 105 138 159 168 201 192 181 152 160 169 165 130 129 158 176 202 212 225 246 249 264 288 305 309 310 324 323 319
192 108 25 342 91 45 119 146 68 11 129 274 296 269 230 195 190 176 184 190 160 151 148 150 149 140 119 109 92 60 218 205 198 222 254 300 314 305 304 311 316 312 309 304
117 100 282 30 38 163 27 63 53 104 111 160 283 262 222 197 193 190 187 180 169 162 152 125 97 86 86 72 46 104 164 191 260 284 307 317 321 321 319 311 307 310 310 311
55 125 122 202 266 237 179 146 134 112 211 79 144 274 331 251 206 165 183 165 139 130 119 100 83 79 78 69 78 118 234 282 307 331 329 330 346 337 338 341 342 340 331 323
178 26 64 353 351 344 180 119 100 107 86 196 137 261 3 52 99 130 141 123 121 123 113 101 97 96 62 59 82 74 15 34 27 23 0 346 349 349 350 341 337 328 322 317
91 104 157 186 204 171 174 169 155 125 124 184 225 266 259 210 152 131 127 130 135 140 139 125 79 66 36 47 50 81 73 47 15 349 339 340 344 346 340 334 331 329 321 314
93 131 125 78 6 335 248 195 179 191 191 176 242 214 238 212 190 167 147 142 149 157 164 182 72 35 47 84 97 78 36 357 337 323 307 317 332 333 331 330 328 327 328 321
17 160 127 200 357 18 287 260 230 220 195 263 265 273 205 154 121 152 165 164 175 186 189 111 103 116 123 107 80 21 335 320 314 302 291 314 325 327 328 326 327 325 324 325
82 126 103 255 7 350 329 228 206 197 188 163 202 235 151 171 181 179 176 182 186 194 174 166 150 141 133 123 350 312 310 303 309 302 312 322 321 324 327 325 327 329 338 341
120 95 73 190 23 353 237 217 213 214 213 200 209 198 191 184 131 156 181 178 199 188 178 160 158 154 161 237 297 303 310 311 316 306 312 320 323 323 324 328 328 330 330 321
60 116 83 136 201 300 293 194 172 177 266 194 200 166 139 95 77 267 200 194 190 184 178 164 163 161 204 285 303 316 329 323 309 307 316 324 322 324 327 325 320 329 320 315
56 66 110 97 146 224 242 264 165 116 297 202 159 166 147 129 157 236 186 169 162 150 149 151 156 189 270 297 309 309 319 314 315 322 322 319 318 324 324 323 312 309 302 287
46 12 159 125 228 288 244 235 165 103 236 172 172 164 154 191 198 180 139 140 159 150 150 152 165 202 315 313 311 298 302 318 323 324 321 311 316 324 321 318 302 310 301 220
168 155 198 102 76 278 172 81 168 215 221 187 181 186 192 130 127 120 110 116 124 138 142 147 141 294 316 328 308 294 309 324 324 320 320 310 316 317 319 314 299 300 245 249
236 190 182 186 215 230 230 230 263 183 190 207 186 175 155 145 158 145 133 135 154 152 145 155 270 313 327 333 319 307 316 317 313 304 308 314 311 307 309 297 296 285 284 278
245 164 200 88 261 237 241 249 237 204 217 195 181 152 156 157 144 141 137 140 143 147 164 243 315 319 325 332 331 317 313 317 311 298 310 311 296 298 303 290 284 282 266 285
205 139 182 262 279 285 268 237 237 213 184 164 138 129 126 127 133 134 115 131 141 163 225 303 308 323 319 314 318 322 319 325 305 305 314 319 291 287 285 289 290 267 275 281
187 191 167 231 237 204 251 311 190 191 191 155 130 106 103 116 105 117 129 143 180 195 305 309 315 314 311 315 319 325 332 323 314 299 303 311 291 283 265 270 278 286 281 284